Volver al catálogo

STARLINK-36969

ActivoComunicacionesVLEO
NORAD 68167·PAYLOAD·🇺🇸 United States

Lanzado Mar 14, 2026 desde Vandenberg Space Force Base

Loading…

Próximos Pases (próximas 24 horas)

TLE

ActualizadoSource: CelesTrak SupGP

Época: Sep 14, 2026, 23:01 UTC

1 68167C 26050A   26257.95951389 -.00000747  00000+0 -22084-4 0  2578
2 68167  53.1575 103.5404 0001216  86.5005  95.7765 15.34384950    19

Sigue STARLINK-36969 en tiempo real con AllMySat

Download on the App Store